[[{"header":{"parameterUnit":"m.s-1","parameterCategory":1,"la1":30.2991,"la2":30.254,"lo1":-89.0895,"lo2":-89.0444,"dy":0.0017,"dx":0.0017,"nx":28,"ny":28,"refTime":"2024-11-29T03:00:00:Z","depth":0,"parameterNumber":2,"parameterNumberName":"U-component_of_WINDS"},"data":[0,0,0,0,0,0,0,0,0,0,0,0,0,0,0,0,0,0,0,0,0,0,0,0,0,0,0,0,0,0,0,0,0,0,0,0,0,0,0,0,0,0,0,0,0,0,0,0,0,0,0,0,0,0,0,0,0,0,-2.1267,-2.1268,0,-2.1345,-2.1346,-2.1347,-2.1278,-2.1275,-2.1272,-2.127,-2.1351,-2.1356,-2.1361,0,0,0,0,0,0,0,0,0,0,0,0,0,-2.1058,-2.1062,-2.1267,-2.1268,-2.1269,-2.1345,-2.1346,-2.1347,-2.1279,-2.1275,-2.1272,-2.1268,-2.135,-2.1355,-2.1361,0,0,0,0,0,0,0,0,0,0,0,0,0,-2.1144,-2.1064,-2.1267,-2.1244,-2.1243,-2.1345,-2.1346,-2.1348,-2.1279,-2.1275,-2.1271,-2.1267,-2.1348,-2.1355,-2.1362,-2.1492,0,0,-2.1384,-2.1387,0,0,0,0,0,0,0,0,-2.1139,-2.1152,-2.1246,-2.1246,-2.1244,-2.1298,-2.1303,-2.1396,-2.128,-2.1266,-2.127,-2.1265,-2.1337,-2.1345,-2.1369,-2.1496,-2.1499,-2.1385,-2.1389,-2.1392,-2.1394,0,0,0,0,0,0,0,-2.1133,-2.1148,-2.1298,-2.1248,-2.1247,-2.123,-2.1237,-2.132,-2.1324,-2.1266,-2.1262,-2.1272,-2.1336,-2.1362,-2.137,-2.15,-2.1385,-2.1391,-2.1395,-2.1398,-2.1737,-2.1741,0,0,0,0,0,0,-2.113,-2.1144,-2.1296,-2.13,-2.118,-2.1237,-2.1245,-2.1285,-2.1323,-2.1325,-2.1275,-2.1268,-2.1352,-2.1362,-2.1373,-2.1528,-2.1392,-2.1399,-2.1403,-2.1732,-2.1738,-2.1743,0,0,0,0,0,0,-2.1126,-2.1144,-2.1292,-2.1221,-2.1238,-2.1245,-2.129,-2.1289,-2.1315,-2.133,-2.133,-2.1302,-2.1349,-2.1363,-2.1463,-2.153,-2.1402,-2.1409,-2.1727,-2.1734,-2.174,-2.1838,0,0,0,0,0,0,-2.112,-2.1143,-2.1193,-2.1222,-2.1242,-2.1381,-2.1294,-2.1293,-2.1328,-2.1319,-2.1355,-2.1356,-2.1347,-2.1452,-2.147,-2.1537,-2.1414,-2.1721,-2.173,-2.1738,-2.1829,-2.1848,-2.1864,0,0,0,0,0,-2.1113,-2.1217,-2.1195,-2.1214,-2.1305,-2.1385,-2.1397,-2.1383,-2.1333,-2.1383,-2.1392,-2.1355,-2.1519,-2.1463,-2.1482,-2.1553,-2.1716,-2.1727,-2.1737,-2.1822,-2.1844,-2.1863,0,0,0,0,0,0,-2.1196,-2.1221,-2.1197,-2.1314,-2.1348,-2.1373,-2.1436,-2.1408,-2.1457,-2.1447,-2.1428,-2.1436,-2.1542,-2.1557,-2.1494,-2.168,-2.161,-2.1624,-2.1667,-2.1689,-2.1706,-2.1701,-2.142,0,0,0,0,0,-2.1228,-2.1292,-2.131,-2.1412,-2.143,-2.143,-2.1465,-2.1451,-2.1485,-2.15,-2.1516,-2.1551,-2.161,-2.165,-2.1705,-2.183,-2.1837,-2.1888,-2.1905,-2.1919,-2.1933,-2.2,-2.2023,-2.1777,-2.1777,-2.1777,0,0,-2.1296,-2.1317,-2.1358,-2.1429,-2.1454,-2.152,-2.1443,-2.1516,-2.1565,-2.1511,-2.1606,-2.1619,-2.1657,-2.177,-2.182,-2.1786,-2.2002,-2.1932,-2.1944,-2.195,-2.2013,-2.2037,-2.2057,-2.1784,-2.1783,-2.1782,0,0,-2.1452,-2.1474,-2.1562,-2.1587,-2.1625,-2.1624,-2.1645,-2.1674,-2.1681,-2.1776,-2.1736,-2.1794,-2.1896,-2.1925,-2.1953,-2.2117,-2.2086,-2.2136,-2.2227,-2.2293,-2.2312,-2.2329,-2.2389,-2.2411,-2.2149,-2.2149,-2.2149,0,-2.1532,-2.163,-2.161,-2.1687,-2.1719,-2.1671,-2.176,-2.1786,-2.184,-2.1863,-2.1823,-2.195,-2.1972,-2.2091,-2.2131,-2.2154,-2.2178,-2.2133,-2.2311,-2.2328,-2.2344,-2.24,-2.2423,-2.2155,-2.2154,-2.2154,-2.2153,0,-2.1725,-2.1794,-2.186,-2.1913,-2.1952,-2.2034,-2.2027,-2.2069,-2.2051,-2.2055,-2.2152,-2.2176,-2.2235,-2.2261,-2.2245,-2.2378,-2.2356,-2.2313,-2.2243,-2.2373,-2.2427,-2.2448,-2.2164,-2.2162,-2.216,-2.2158,0,0,-2.194,-2.1979,-2.2004,-2.2027,-2.2064,-2.2117,-2.2196,-2.2253,-2.229,-2.2328,-2.2395,-2.2481,-2.2442,-2.2473,-2.2459,-2.2516,-2.2646,-2.2467,-2.2468,-2.2501,-2.2795,-2.2828,-2.2854,-2.2624,-2.2628,-2.2631,-2.2792,0,-2.2099,-2.2237,-2.2222,-2.2353,-2.2416,-2.2371,-2.2439,-2.247,-2.2474,-2.2528,-2.2533,-2.2595,-2.2538,-2.2557,-2.2611,-2.2619,-2.2706,-2.2607,-2.2687,-2.269,-2.2681,-2.2881,-2.2917,-2.3068,-2.2813,-2.2816,-2.2819,0,-2.2304,-2.2349,-2.2487,-2.2514,-2.2539,-2.2602,-2.2652,-2.2704,-2.2737,-2.2736,-2.277,-2.2746,-2.2825,-2.275,-2.2859,-2.2793,-2.2824,-2.2832,-2.2838,-2.2847,-2.2764,-2.2898,-2.3116,-2.314,-2.2851,-2.2849,-2.2846,0,-2.2449,-2.2543,-2.2638,-2.2659,-2.2692,-2.2737,-2.2753,-2.2781,-2.2816,-2.286,-2.2882,-2.2935,-2.2964,-2.3005,-2.2995,-2.2941,-2.3107,-2.3031,-2.3109,-2.311,-2.3148,-2.3147,-2.3377,-2.3165,-2.3165,-2.3164,-2.3164,0,-2.263,-2.2717,-2.2704,-2.2763,-2.2858,-2.2838,-2.2933,-2.2943,-2.2968,-2.3027,-2.299,-2.3047,-2.3029,-2.3084,-2.3077,-2.3169,-2.3182,-2.3184,-2.3181,-2.3188,-2.3188,-2.321,-2.32,-2.317,-2.3169,-2.3168,-2.3167,0,-2.2809,-2.2804,-2.2904,-2.2926,-2.2934,-2.3003,-2.3022,-2.3077,-2.3077,-2.3153,-2.317,-2.3171,-2.3234,-2.3227,-2.3298,-2.3293,-2.3407,-2.3391,-2.3397,-2.3394,-2.3472,-2.3466,-2.3727,-2.376,-2.3525,-2.3527,-2.3529,0,-2.2926,-2.2992,-2.302,-2.3057,-2.3076,-2.3136,-2.3171,-2.3153,-2.3191,-2.3232,-2.3282,-2.3342,-2.3389,-2.3493,-2.35,-2.3554,-2.354,-2.3627,-2.3548,-2.3553,-2.3543,-2.354,-2.3547,-2.3644,-2.3647,-2.3649,-2.365,0,-2.3135,-2.3129,-2.3181,-2.3232,-2.3274,-2.3314,-2.3349,-2.3382,-2.3367,-2.3411,-2.3476,-2.3512,-2.3584,-2.3644,-2.3694,-2.371,-2.3679,-2.3675,-2.3696,-2.3706,-2.3707,-2.3708,-2.3442,-2.367,-2.3668,-2.3666,-2.3665,-2.3665,-2.3288,-2.3344,-2.3373,-2.3431,-2.3456,-2.349,-2.3542,-2.3548,-2.3601,-2.3658,-2.3644,-2.3717,-2.3746,-2.381,-2.3831,-2.3887,-2.3855,-2.3886,-2.3894,-2.3902,-2.3912,-2.3696,-2.3896,-2.3896,-2.3895,-2.3895,-2.3894,0,-2.3496,-2.3512,-2.3566,-2.3616,-2.3663,-2.3626,-2.3663,-2.3705,-2.3769,-2.3799,-2.3845,-2.3919,-2.3976,-2.3987,-2.4041,-2.4084,-2.4071,-2.4099,-2.4097,-2.4101,-2.3937,-2.3914,-2.4109,-2.4109,-2.4109,-2.4109,-2.4109,-2.4109,-2.361,-2.3703,-2.37,-2.3804,-2.3818,-2.3889,-2.3913,-2.3944,-2.3968,-2.4051,-2.4098,-2.4104,-2.4126,-2.4182,-2.4233,-2.4234,-2.4257,-2.4292,-2.4288,-2.4134,-2.4113,-2.4093,-2.4071,-2.4296,-2.4296,-2.4448,-2.4449,-2.445]},{"header":{"parameterUnit":"m.s-1","parameterCategory":1,"la1":30.2991,"la2":30.254,"lo1":-89.0895,"lo2":-89.0444,"dy":0.0017,"dx":0.0017,"nx":28,"ny":28,"refTime":"2024-11-29T03:00:00:Z","depth":0,"parameterNumber":3,"parameterNumberName":"V-component_of_WINDS"},"data":[0,0,0,0,0,0,0,0,0,0,0,0,0,0,0,0,0,0,0,0,0,0,0,0,0,0,0,0,0,0,0,0,0,0,0,0,0,0,0,0,0,0,0,0,0,0,0,0,0,0,0,0,0,0,0,0,0,0,-7.669,-7.6691,0,-7.6841,-7.6843,-7.6844,-7.6745,-7.674,-7.6736,-7.6731,-7.688,-7.6888,-7.6896,0,0,0,0,0,0,0,0,0,0,0,0,0,-7.6306,-7.6314,-7.6689,-7.6691,-7.6693,-7.6841,-7.6843,-7.6845,-7.6746,-7.674,-7.6734,-7.6729,-7.6877,-7.6887,-7.6897,0,0,0,0,0,0,0,0,0,0,0,0,0,-7.6467,-7.6316,-7.6689,-7.6662,-7.6661,-7.684,-7.6843,-7.6845,-7.6747,-7.674,-7.6733,-7.6727,-7.6874,-7.6886,-7.6898,-7.7111,0,0,-7.6936,-7.6941,0,0,0,0,0,0,0,0,-7.6458,-7.6481,-7.6664,-7.6664,-7.6663,-7.6767,-7.6762,-7.6934,-7.6748,-7.6714,-7.6731,-7.6723,-7.6847,-7.6861,-7.6905,-7.7118,-7.7124,-7.6937,-7.6944,-7.6949,-7.6953,0,0,0,0,0,0,0,-7.6447,-7.6474,-7.6749,-7.6666,-7.6666,-7.6639,-7.6654,-7.6794,-7.6817,-7.6716,-7.671,-7.6729,-7.6846,-7.6893,-7.6907,-7.7126,-7.6936,-7.6947,-7.6955,-7.696,-7.7519,-7.7526,0,0,0,0,0,0,-7.6439,-7.6465,-7.6744,-7.6754,-7.6542,-7.6652,-7.6669,-7.674,-7.6815,-7.682,-7.6735,-7.6724,-7.6875,-7.6893,-7.6912,-7.7165,-7.6949,-7.6961,-7.6968,-7.7511,-7.752,-7.7528,0,0,0,0,0,0,-7.6431,-7.6465,-7.6738,-7.6608,-7.664,-7.6666,-7.6747,-7.6747,-7.6794,-7.6829,-7.6832,-7.678,-7.6871,-7.6895,-7.7062,-7.7169,-7.6966,-7.6978,-7.7502,-7.7514,-7.7524,-7.7673,0,0,0,0,0,0,-7.6421,-7.6463,-7.6546,-7.661,-7.6648,-7.6889,-7.6754,-7.6755,-7.6817,-7.6804,-7.6872,-7.6876,-7.6867,-7.7044,-7.7074,-7.7182,-7.6987,-7.7493,-7.7507,-7.7521,-7.7659,-7.7688,-7.7713,0,0,0,0,0,-7.6407,-7.6581,-7.6551,-7.6585,-7.6753,-7.6895,-7.6916,-7.6904,-7.6826,-7.6908,-7.693,-7.6874,-7.7152,-7.7062,-7.7095,-7.7208,-7.7486,-7.7503,-7.752,-7.7647,-7.7682,-7.7713,0,0,0,0,0,0,-7.6526,-7.6589,-7.6556,-7.6756,-7.6821,-7.6878,-7.6982,-7.6942,-7.7029,-7.7013,-7.6992,-7.7008,-7.7183,-7.7212,-7.711,-7.7417,-7.7306,-7.7331,-7.7392,-7.7426,-7.7453,-7.7442,-7.6997,0,0,0,0,0,-7.6576,-7.6689,-7.6736,-7.6908,-7.6943,-7.6957,-7.7018,-7.7003,-7.7069,-7.7095,-7.7129,-7.7193,-7.7294,-7.7361,-7.7457,-7.7662,-7.7674,-7.7756,-7.7783,-7.7805,-7.7826,-7.7935,-7.7971,-7.7583,-7.7583,-7.7583,0,0,-7.668,-7.6728,-7.68,-7.6933,-7.6982,-7.7097,-7.6981,-7.7107,-7.7191,-7.7113,-7.7274,-7.7301,-7.737,-7.7557,-7.7641,-7.7587,-7.7936,-7.7827,-7.7844,-7.7853,-7.7956,-7.7993,-7.8025,-7.7595,-7.7593,-7.7591,0,0,-7.6928,-7.6976,-7.7124,-7.7175,-7.7251,-7.7259,-7.7294,-7.7357,-7.7373,-7.7534,-7.7477,-7.7575,-7.7751,-7.7802,-7.7851,-7.8116,-7.8067,-7.8147,-7.8289,-7.8395,-7.8426,-7.8453,-7.8546,-7.858,-7.8168,-7.8169,-7.8169,0,-7.7047,-7.722,-7.7205,-7.7336,-7.7395,-7.7331,-7.7479,-7.7528,-7.7631,-7.7672,-7.761,-7.7828,-7.787,-7.8067,-7.8132,-7.8174,-7.8212,-7.814,-7.8423,-7.845,-7.8475,-7.8563,-7.8599,-7.8178,-7.8177,-7.8176,-7.8175,0,-7.7361,-7.7482,-7.7591,-7.7694,-7.7765,-7.7904,-7.7907,-7.798,-7.7958,-7.7972,-7.8135,-7.8183,-7.8287,-7.8332,-7.8311,-7.8526,-7.849,-7.8426,-7.8315,-7.8521,-7.8604,-7.8638,-7.8191,-7.8188,-7.8185,-7.8183,0,0,-7.769,-7.7781,-7.7822,-7.7866,-7.7944,-7.8035,-7.817,-7.8272,-7.8335,-7.8407,-7.8517,-7.8666,-7.8608,-7.8664,-7.8647,-7.8741,-7.8946,-7.8665,-7.8666,-7.8715,-7.9183,-7.923,-7.927,-7.8914,-7.892,-7.8925,-7.9177,0,-7.7941,-7.8179,-7.8168,-7.8389,-7.8498,-7.8438,-7.8555,-7.8614,-7.8629,-7.8722,-7.8738,-7.8844,-7.8759,-7.8792,-7.8882,-7.8902,-7.9039,-7.8884,-7.9014,-7.9019,-7.8999,-7.9313,-7.9364,-7.9599,-7.9209,-7.9214,-7.9218,0,-7.8267,-7.8351,-7.8584,-7.8644,-7.8689,-7.8795,-7.8887,-7.8978,-7.9041,-7.9046,-7.9108,-7.9076,-7.9209,-7.9094,-7.9275,-7.917,-7.9222,-7.9239,-7.9248,-7.9259,-7.9131,-7.9333,-7.9674,-7.9709,-7.9269,-7.9265,-7.9262,0,-7.8482,-7.8653,-7.8814,-7.8854,-7.8929,-7.9004,-7.9038,-7.9095,-7.9157,-7.9236,-7.9276,-7.9369,-7.942,-7.9491,-7.9484,-7.9402,-7.9668,-7.9553,-7.9673,-7.9674,-7.9732,-7.9729,-8.0087,-7.9767,-7.9766,-7.9766,-7.9765,0,-7.8764,-7.8908,-7.8912,-7.9011,-7.917,-7.9154,-7.9311,-7.9336,-7.9388,-7.9488,-7.9441,-7.9536,-7.9521,-7.9615,-7.961,-7.976,-7.9783,-7.9788,-7.9785,-7.9793,-7.9792,-7.9827,-7.981,-7.9775,-7.9773,-7.9771,-7.977,0,-7.9031,-7.904,-7.9211,-7.9267,-7.9285,-7.9399,-7.9445,-7.9538,-7.9549,-7.9676,-7.9705,-7.9722,-7.983,-7.983,-7.9953,-7.995,-8.0133,-8.0111,-8.0112,-8.0108,-8.0228,-8.0216,-8.062,-8.0672,-8.0319,-8.0323,-8.0326,0,-7.9211,-7.9321,-7.9389,-7.9454,-7.9493,-7.9598,-7.9661,-7.9649,-7.9716,-7.9796,-7.9878,-7.9982,-8.0065,-8.024,-8.0261,-8.0354,-8.0334,-8.0469,-8.0348,-8.0351,-8.0335,-8.0329,-8.0339,-8.0493,-8.0497,-8.05,-8.0503,0,-7.9528,-7.9526,-7.962,-7.9716,-7.9793,-7.9867,-7.9935,-7.999,-7.9985,-8.0063,-8.0174,-8.0238,-8.0364,-8.0467,-8.0557,-8.0588,-8.0545,-8.0541,-8.0573,-8.0582,-8.0578,-8.0581,-8.0177,-8.0532,-8.0529,-8.0527,-8.0525,-8.0524,-7.9756,-7.985,-7.9913,-8.0018,-8.0069,-8.0133,-8.0222,-8.0245,-8.0338,-8.0441,-8.0427,-8.0551,-8.0608,-8.0725,-8.0764,-8.0858,-8.0811,-8.0858,-8.087,-8.0882,-8.0895,-8.0563,-8.0874,-8.0874,-8.0873,-8.0872,-8.0872,0,-8.007,-8.0107,-8.0205,-8.0302,-8.0385,-8.0338,-8.041,-8.0482,-8.0592,-8.0651,-8.0733,-8.086,-8.0959,-8.0988,-8.1083,-8.1153,-8.1135,-8.1178,-8.1172,-8.118,-8.0933,-8.0895,-8.1191,-8.1191,-8.1191,-8.119,-8.119,-8.119,-8.0243,-8.04,-8.0405,-8.0585,-8.062,-8.0742,-8.0787,-8.0845,-8.0892,-8.1036,-8.1119,-8.1138,-8.1184,-8.1282,-8.137,-8.1375,-8.1412,-8.1464,-8.1461,-8.123,-8.1197,-8.1167,-8.1131,-8.1472,-8.1472,-8.17,-8.1702,-8.1704]}]]